Regional Weather Roundup
Issued by NWS

Home | Current Version | Previous Version | Text Only | Print | Product List | Glossary On
Versions: 1 2 3 4 5 6 7 8 9 10 11 12 13 14 15 16 17 18 19 20 21 22 23 24 25 26 27 28 29 30 31 32 33 34 35 36 37 38 39 40 41 42 43 44 45 46 47 48 49 50
053
ASUS44 KJAN 221010
RWRMS

MISSISSIPPI HOURLY WEATHER ROUNDUP
NATIONAL WEATHER SERVICE JACKSON MS
400 AM CST MON DEC 22 2014

NOTE: "FAIR: INDICATES FEW OR NO CLOUDS BELOW 12,000 FEET WITH NO
SIGNIFICANT WEATHER AND/OR OBSTRUCTIONS TO VISIBILITY.

MSZ001>002-007>008-010>013-018>021-025>028-034>036-221100-
NORTHWEST MISSISSIPPI

CITY           SKY/WX    TMP DP  RH WIND       PRES   REMARKS
CLARKSDALE     CLOUDY    48  48 100 S6        29.88S
CLEVELAND      CLOUDY    50  50 100 S10       29.86S
GREENWOOD      CLOUDY    51  48  89 S14       29.87F
GREENVILLE     CLOUDY    51  48  89 S12       29.85F
GRENADA        CLOUDY    48  46  93 SE8       29.88F FOG
OLIVE BRANCH   CLOUDY    45 N/A N/A S9        29.88F
OXFORD         CLOUDY    46  46 100 SE6       29.89F FOG
TUNICA         CLOUDY    48  46  93 S9        29.87F FOG
$$

MSZ003>006-009-014>017-022>024-029>033-037>039-221100-
NORTHEAST MISSISSIPPI

CITY           SKY/WX    TMP DP  RH WIND       PRES   REMARKS
COLUMBUS AFB   CLOUDY    51  49  94 S6        29.95R
CORINTH        CLOUDY    48  45  87 SE7       29.90F
GOLDN TRIANGLE CLOUDY    50  46  87 SE7       29.93S
STARKVILLE     CLOUDY    50  48  93 SE6       29.93F FOG
TUPELO         CLOUDY    50  46  86 S9        29.93R
$$

MSZ040-058-221100-
CENTRAL MISSISSIPPI

CITY           SKY/WX    TMP DP  RH WIND       PRES   REMARKS
JACKSON INTL   CLOUDY    52  51  97 SE8       29.88F FOG
JACKSON HAWKNS CLOUDY    52  50  93 SE6       29.88F FOG
MERIDIAN KEY   CLOUDY    52  50  93 E3        29.92S
MERIDIAN NAS   CLOUDY    51  50  96 SE5       29.93F FOG
RAYMOND        CLOUDY    52  46  82 E5        29.86F HAZE
VICKSBURG      CLOUDY    52  49  89 SE6       29.86F
$$

MSZ059>079-221100-
SOUTH MISSISSIPPI

CITY           SKY/WX    TMP DP  RH WIND       PRES   REMARKS
HATTIESBURG    FOG       54  53  97 E5        29.90F VSB 1/2
MCCOMB         LGT RAIN  53  52  96 SE3       29.87F VSB 1/2
NATCHEZ        CLOUDY    54  50  87 S5        29.87F
PINE BELT      CLOUDY    54  50  87 E5        29.91S VSB 1/2
$$

MSZ080>082-221100-
COASTAL MISSISSIPPI

CITY           SKY/WX    TMP DP  RH WIND       PRES   REMARKS
BILOXI         CLOUDY    58  58 100 E6        29.87F
PASCAGOULA     CLOUDY    57  56  96 E5        29.88F
GULFPORT       CLOUDY    57  55  93 E5        29.87F
$$



USA.gov is the U.S. government's official web portal to all federal, state and local government web resources and services.